Torna al catalogo

FENGYUN 1C DEB

LostPO
NORAD 32233·DEBRIS·🇨🇳 China

Lanciato May 10, 1999 da Taiyuan Satellite Launch Center

Loading…

Prossimi Passaggi (prossime 24 ore)

TLE

ObsoletoSource: Space-Track

Epoca: Aug 29, 2022, 08:08 UTC

1 32233U 99025CWF 22241.33897525  .00001406  00000-0  69193-3 0  9993
2 32233  97.6910  81.7830 0253866  28.5964 332.8864 14.03419520772939

Traccia FENGYUN 1C DEB in tempo reale con AllMySat

Download on the App Store